When you browse on this site, cookies collect data to enhance your experience and personalize the content and advertising you see.
Visit our Privacy Policy to learn more. By continuing to use the site, you agree to this use of cookies and data.
  • In Czech Republic
  • List of Countries
  • For 7 days
  • Water Temperature
  • Satellite Maps
  • Weather Map
  • Weather Widgets
  • user-avatar
    Login

    Hourly Weather Herāt

    Today, 23 March, Saturday

    Time Temperature Precipitation Wind Pressure Humidity
    00:00 +11°C° 0 mm 1 mps 680 mmHg 69%
    01:00 +11°C° 0 mm 1 mps 680 mmHg 71%
    02:00 +9°C° 0 mm 0 mps 680 mmHg 71%
    03:00 +9°C° 0 mm 0 mps 681 mmHg 70%
    04:00 +9°C° 0 mm 1 mps 680 mmHg 70%
    05:00 +10°C° 0 mm 1 mps 681 mmHg 65%
    06:00 +10°C° 0 mm 1 mps 681 mmHg 59%
    07:00 +9°C° 0 mm 2 mps 681 mmHg 54%
    08:00 +12°C° 0 mm 2 mps 681 mmHg 44%
    09:00 +13°C° 0 mm 1 mps 682 mmHg 33%
    10:00 +14°C° 0 mm 1 mps 682 mmHg 24%
    11:00 +15°C° 0 mm 1 mps 682 mmHg 21%
    12:00 +16°C° 0 mm 1 mps 681 mmHg 18%
    13:00 +18°C° 0 mm 1 mps 681 mmHg 15%
    14:00 +17°C° 0 mm 2 mps 681 mmHg 15%
    15:00 +17°C° 0 mm 2 mps 681 mmHg 15%
    16:00 +17°C° 0 mm 2 mps 681 mmHg 15%
    17:00 +18°C° 0 mm 1 mps 681 mmHg 17%
    18:00 +16°C° 0 mm 1 mps 680 mmHg 20%
    19:00 +15°C° 0 mm 1 mps 680 mmHg 23%
    20:00 +15°C° 0 mm 1 mps 681 mmHg 23%
    21:00 +15°C° 0 mm 1 mps 681 mmHg 23%
    22:00 +15°C° 0 mm 1 mps 681 mmHg 23%
    23:00 +15°C° 0 mm 2 mps 680 mmHg 26%

    Tomorrow, 24 March, Sunday

    Time Temperature Precipitation Wind Pressure Humidity
    00:00 +14°C° 0 mm 2 mps 680 mmHg 29%
    01:00 +13°C° 0 mm 3 mps 680 mmHg 31%
    02:00 +12°C° 0 mm 3 mps 680 mmHg 34%
    03:00 +12°C° 0 mm 3 mps 679 mmHg 36%
    04:00 +12°C° 0 mm 3 mps 679 mmHg 38%
    05:00 +12°C° 0 mm 3 mps 679 mmHg 38%
    06:00 +12°C° 0 mm 4 mps 679 mmHg 39%
    07:00 +13°C° 0 mm 4 mps 679 mmHg 39%
    08:00 +14°C° 0 mm 4 mps 680 mmHg 36%
    09:00 +17°C° 0 mm 4 mps 680 mmHg 32%
    10:00 +19°C° 0 mm 4 mps 680 mmHg 28%
    11:00 +20°C° 0 mm 3 mps 680 mmHg 27%
    12:00 +21°C° 0 mm 3 mps 680 mmHg 25%
    13:00 +22°C° 0 mm 3 mps 680 mmHg 23%
    14:00 +22°C° 0 mm 3 mps 679 mmHg 22%
    15:00 +24°C° 0 mm 3 mps 679 mmHg 22%
    16:00 +24°C° 0 mm 3 mps 678 mmHg 21%
    17:00 +22°C° 0 mm 3 mps 678 mmHg 24%
    18:00 +21°C° 0 mm 4 mps 678 mmHg 26%
    19:00 +19°C° 0 mm 4 mps 678 mmHg 29%
    20:00 +19°C° 0 mm 4 mps 678 mmHg 29%
    21:00 +18°C° 0 mm 4 mps 678 mmHg 30%
    22:00 +18°C° 0 mm 4 mps 678 mmHg 30%
    23:00 +17°C° 0 mm 4 mps 678 mmHg 31%

    Day after tomorrow, 25 March, Monday

    Time Temperature Precipitation Wind Pressure Humidity
    00:00 +17°C° 0 mm 4 mps 678 mmHg 33%
    01:00 +15°C° 0 mm 4 mps 678 mmHg 34%
    02:00 +15°C° 0 mm 4 mps 678 mmHg 34%
    03:00 +15°C° 0 mm 5 mps 677 mmHg 35%
    04:00 +14°C° 0 mm 5 mps 677 mmHg 35%
    05:00 +14°C° 0 mm 4 mps 678 mmHg 35%
    06:00 +15°C° 0 mm 4 mps 678 mmHg 35%
    07:00 +15°C° 0 mm 4 mps 678 mmHg 34%
    08:00 +18°C° 0 mm 4 mps 679 mmHg 32%
    09:00 +20°C° 0 mm 5 mps 680 mmHg 29%
    10:00 +22°C° 0 mm 5 mps 680 mmHg 27%
    11:00 +23°C° 0 mm 6 mps 680 mmHg 26%
    12:00 +24°C° 0 mm 7 mps 680 mmHg 25%
    13:00 +26°C° 0 mm 8 mps 680 mmHg 24%
    14:00 +26°C° 0 mm 8 mps 680 mmHg 24%
    15:00 +26°C° 0 mm 7 mps 679 mmHg 25%
    16:00 +26°C° 0 mm 7 mps 679 mmHg 25%
    17:00 +24°C° 0 mm 7 mps 678 mmHg 27%
    18:00 +22°C° 0 mm 6 mps 678 mmHg 30%
    19:00 +21°C° 0 mm 5 mps 678 mmHg 32%
    20:00 +21°C° 0 mm 5 mps 678 mmHg 33%
    21:00 +20°C° 0 mm 4 mps 678 mmHg 34%
    22:00 +20°C° 0 mm 4 mps 679 mmHg 35%
    23:00 +20°C° 0 mm 4 mps 679 mmHg 36%

    26 March, Tuesday

    Time Temperature Precipitation Wind Pressure Humidity
    00:00 +19°C° 0 mm 4 mps 679 mmHg 37%
    01:00 +19°C° 0 mm 4 mps 679 mmHg 38%
    02:00 +19°C° 0.1 mm 4 mps 679 mmHg 42%
    03:00 +18°C° 0.1 mm 3 mps 679 mmHg 45%
    04:00 +18°C° 0.1 mm 3 mps 679 mmHg 49%
    05:00 +18°C° 0.1 mm 3 mps 679 mmHg 49%
    06:00 +18°C° 0.1 mm 4 mps 679 mmHg 48%
    07:00 +18°C° 0.1 mm 4 mps 679 mmHg 48%
    08:00 +20°C° 0 mm 6 mps 679 mmHg 44%
    09:00 +22°C° 0 mm 7 mps 680 mmHg 40%
    10:00 +23°C° 0 mm 8 mps 681 mmHg 36%
    11:00 +23°C° 0.1 mm 8 mps 680 mmHg 39%
    12:00 +23°C° 0.1 mm 8 mps 680 mmHg 42%
    13:00 +23°C° 0.1 mm 8 mps 680 mmHg 45%
    14:00 +23°C° 0 mm 8 mps 680 mmHg 46%
    15:00 +23°C° 0 mm 8 mps 680 mmHg 47%
    16:00 +23°C° 0 mm 8 mps 679 mmHg 47%
    17:00 +22°C° 0 mm 6 mps 680 mmHg 51%
    18:00 +21°C° 0 mm 5 mps 680 mmHg 55%
    19:00 +20°C° 0 mm 3 mps 680 mmHg 58%
    20:00 +19°C° 0 mm 4 mps 680 mmHg 57%
    21:00 +19°C° 0 mm 4 mps 680 mmHg 57%
    22:00 +19°C° 0 mm 4 mps 680 mmHg 56%
    23:00 +19°C° 0.1 mm 5 mps 680 mmHg 57%

    27 March, Wednesday

    Time Temperature Precipitation Wind Pressure Humidity
    00:00 +19°C° 0.1 mm 5 mps 679 mmHg 58%
    01:00 +19°C° 0.1 mm 5 mps 678 mmHg 58%
    02:00 +19°C° 0 mm 6 mps 678 mmHg 58%
    03:00 +19°C° 0 mm 6 mps 678 mmHg 59%
    04:00 +18°C° 0 mm 7 mps 677 mmHg 59%
    05:00 +18°C° 0.1 mm 7 mps 678 mmHg 57%
    06:00 +20°C° 0.1 mm 6 mps 678 mmHg 55%
    07:00 +20°C° 0.1 mm 6 mps 678 mmHg 54%
    08:00 +22°C° 0 mm 8 mps 678 mmHg 48%
    09:00 +23°C° 0 mm 10 mps 679 mmHg 43%
    10:00 +26°C° 0 mm 12 mps 679 mmHg 37%
    11:00 +27°C° 0 mm 12 mps 679 mmHg 35%
    12:00 +27°C° 0 mm 11 mps 679 mmHg 34%
    13:00 +28°C° 0 mm 11 mps 678 mmHg 32%
    14:00 +27°C° 0 mm 10 mps 678 mmHg 32%
    15:00 +27°C° 0 mm 10 mps 678 mmHg 33%
    16:00 +27°C° 0 mm 9 mps 678 mmHg 33%
    17:00 +24°C° 0.8 mm 8 mps 678 mmHg 40%
    18:00 +23°C° 0.8 mm 6 mps 678 mmHg 47%
    19:00 +21°C° 0.8 mm 5 mps 678 mmHg 54%
    20:00 +21°C° 1.4 mm 4 mps 678 mmHg 55%
    21:00 +21°C° 1.4 mm 4 mps 678 mmHg 56%
    22:00 +20°C° 1.4 mm 3 mps 679 mmHg 56%
    23:00 +20°C° 0.3 mm 3 mps 679 mmHg 57%

    28 March, Thursday

    Time Temperature Precipitation Wind Pressure Humidity
    00:00 +19°C° 0.3 mm 3 mps 679 mmHg 57%
    01:00 +19°C° 0.3 mm 3 mps 678 mmHg 58%
    02:00 +18°C° 0.6 mm 2 mps 678 mmHg 62%
    03:00 +17°C° 0.6 mm 2 mps 678 mmHg 66%
    04:00 +16°C° 0.6 mm 1 mps 678 mmHg 71%
    05:00 +18°C° 0.3 mm 1 mps 679 mmHg 69%
    06:00 +18°C° 0.3 mm 1 mps 679 mmHg 68%
    07:00 +18°C° 0.3 mm 1 mps 680 mmHg 66%
    08:00 +20°C° 0 mm 1 mps 680 mmHg 59%
    09:00 +20°C° 0 mm 2 mps 681 mmHg 52%
    10:00 +23°C° 0 mm 2 mps 681 mmHg 45%
    11:00 +24°C° 0 mm 3 mps 680 mmHg 40%
    12:00 +25°C° 0 mm 5 mps 680 mmHg 35%
    13:00 +26°C° 0 mm 6 mps 680 mmHg 30%
    14:00 +26°C° 0 mm 6 mps 679 mmHg 29%
    15:00 +26°C° 0 mm 6 mps 679 mmHg 27%
    16:00 +26°C° 0 mm 7 mps 678 mmHg 26%
    17:00 +23°C° 0 mm 5 mps 678 mmHg 32%
    18:00 +22°C° 0 mm 4 mps 678 mmHg 38%
    19:00 +21°C° 0 mm 3 mps 678 mmHg 44%
    20:00 +20°C° 0 mm 2 mps 678 mmHg 48%
    21:00 +19°C° 0 mm 2 mps 678 mmHg 52%
    22:00 +18°C° 0 mm 2 mps 678 mmHg 56%
    23:00 +18°C° 0 mm 2 mps 678 mmHg 57%
    Show more